Temperature
22 21 21 22 27 29 29 30 30 30 30 28 28 28 28 28 28 26 22 22 21 20 19 20 20 19 19 20 20 20 19 19 19 19 19 19 18 18 18 18 18 18 18 18 18 18 18 18 18
21 21 22 25 29 29 29 30 30 30 29 27 27 27 28 28 25 23 21 21 20 20 19 19 20 20 20 20 20 19 19 19 19 19 19 19 18 18 18 18 18 18 18 18 18 18 18 18 18
21 21 25 29 30 30 30 30 30 30 28 28 28 27 28 27 24 22 21 20 20 20 19 19 20 20 20 20 19 19 19 19 19 19 19 19 18 18 18 18 18 18 18 18 18 18 18 18 18
22 24 27 29 30 30 30 31 30 30 28 27 28 28 26 23 23 21 20 20 20 19 19 19 20 20 19 19 19 19 19 19 19 19 18 18 18 18 18 18 18 18 18 18 18 18 18 18 18
23 27 29 30 30 31 31 30 30 30 30 28 28 28 26 22 21 21 20 20 20 20 19 19 20 20 19 19 19 19 19 19 19 19 18 18 18 18 18 18 18 18 18 18 18 18 18 18 18
26 29 30 30 30 31 31 30 30 30 29 28 28 28 26 21 21 20 20 20 20 20 19 19 20 20 19 19 19 19 19 19 19 19 18 18 18 18 18 18 18 18 18 18 18 18 17 17 17
27 29 30 30 30 30 31 30 30 30 30 29 28 28 25 22 21 20 20 20 20 20 19 18 19 19 19 19 19 19 19 19 19 19 18 18 18 18 18 18 18 18 18 18 18 17 17 17 17
26 30 30 30 30 31 31 30 30 30 29 28 27 28 26 22 21 20 20 20 20 20 19 18 18 18 18 19 19 19 19 19 19 18 18 18 18 18 18 17 18 18 18 18 18 17 17 17 17
25 29 30 31 30 31 31 31 30 29 28 27 27 26 25 22 21 20 19 19 19 19 19 19 18 18 18 18 18 18 18 18 18 18 18 18 17 17 17 17 17 17 17 17 17 17 17 17 17
27 29 30 31 31 31 31 30 30 29 29 28 26 24 22 21 21 20 20 19 19 19 19 19 18 18 18 18 18 18 18 18 17 17 18 17 17 17 17 17 18 17 17 17 17 17 17 17 17
28 29 30 30 30 30 30 30 30 30 30 29 27 24 21 21 20 20 20 19 19 19 19 19 18 18 18 18 18 17 17 17 17 17 17 17 17 17 17 17 17 17 17 17 17 17 17 17 17
29 29 29 30 30 30 30 30 30 30 29 28 27 25 22 21 21 20 20 19 19 18 18 18 18 18 18 18 18 18 17 17 17 17 17 17 17 17 17 17 16 17 17 16 16 16 16 16 16
29 30 29 30 30 30 30 30 30 29 28 26 25 24 22 22 21 20 20 19 18 18 18 18 18 18 18 18 18 18 18 18 17 18 17 17 17 17 17 17 17 16 16 16 16 16 16 16 16
30 29 30 30 30 30 30 30 30 29 27 26 25 24 22 22 20 20 19 19 18 18 18 18 18 18 18 18 18 18 18 18 17 17 17 17 17 17 17 17 17 16 16 16 16 16 16 16 16
28 29 31 31 30 30 30 30 30 28 26 26 25 23 22 21 20 19 19 19 18 18 18 18 18 18 18 18 18 18 17 17 17 17 17 17 17 17 17 17 16 16 16 16 16 16 16 16 16
30 30 30 31 31 30 30 30 30 27 26 26 24 23 21 20 20 19 19 19 18 18 18 18 17 17 18 18 17 17 17 17 17 17 17 17 17 17 17 16 16 16 16 16 16 16 16 16 16
30 30 30 31 31 30 30 30 29 27 27 26 24 23 21 20 19 18 18 18 18 18 18 17 17 17 18 17 17 17 17 17 17 17 17 17 17 17 16 16 16 16 16 16 16 16 16 16 16
30 30 30 30 30 30 30 30 29 27 26 26 24 23 21 20 19 18 18 18 18 17 17 17 17 17 17 17 17 17 17 17 17 17 17 17 17 16 16 16 16 16 16 16 16 15 15 16 16
29 29 29 30 30 29 30 30 29 27 26 26 24 23 22 20 19 18 18 17 17 17 17 17 17 17 17 17 17 17 17 17 17 17 17 17 16 16 16 16 16 16 16 15 15 15 15 16 16
28 28 29 30 30 29 29 29 29 28 26 25 24 23 22 21 19 18 18 17 17 17 17 17 17 17 17 17 17 17 17 17 17 17 17 17 16 16 16 16 16 16 15 15 15 15 16 16 16
28 28 29 29 29 29 29 29 29 28 26 25 24 23 22 21 20 19 18 18 17 17 17 17 17 17 17 17 17 17 17 17 17 17 17 16 16 16 16 16 16 15 15 15 15 15 15 16 16
28 29 29 29 29 29 29 28 29 28 27 26 25 24 23 21 20 19 18 18 17 17 17 17 17 17 17 17 17 17 17 17 17 17 17 17 16 16 16 16 15 15 15 15 15 15 15 15 16
29 29 28 29 28 29 29 28 29 28 28 27 26 24 23 22 20 19 18 18 17 17 17 17 17 17 17 17 17 17 17 17 17 17 17 17 16 16 16 16 15 15 15 15 15 15 15 15 16
29 28 28 28 29 28 28 28 29 29 28 28 26 24 22 21 20 19 18 18 17 17 17 17 17 17 17 17 17 17 17 17 17 17 17 17 16 16 16 15 15 15 15 15 15 15 15 15 15
28 28 27 27 27 28 28 28 29 29 28 28 27 25 22 21 20 19 18 18 17 17 17 17 16 17 17 17 17 17 17 17 17 17 17 17 16 16 16 15 15 15 15 15 15 15 15 14 14
28 28 27 27 27 28 28 28 29 29 27 26 25 24 22 21 20 19 18 18 17 17 17 17 16 17 17 17 17 17 17 17 17 17 17 17 16 16 16 16 15 15 15 15 15 14 14 14 14
28 28 30 28 28 28 28 29 29 28 27 26 25 24 23 22 20 20 19 18 18 17 17 17 17 17 17 17 17 17 17 17 17 17 17 16 16 16 16 16 15 15 15 15 15 14 14 14 14
29 29 28 28 26 26 28 28 29 28 28 27 26 25 24 22 21 20 19 19 18 18 17 17 17 17 17 17 17 17 17 17 17 17 17 16 16 16 16 16 16 15 15 15 15 14 14 14 14
27 28 28 28 28 27 27 28 29 29 28 28 27 25 24 23 22 20 19 19 18 18 17 17 17 17 17 17 17 17 17 17 17 17 17 17 17 16 16 16 16 16 15 15 15 15 14 14 14
28 28 28 27 27 27 27 28 29 29 29 28 27 25 24 23 22 21 20 19 18 18 17 17 17 17 17 17 17 17 17 17 17 17 17 17 17 17 16 16 16 16 15 15 15 15 15 15 14
Wind_Speed
9 6 5 4 5 2 3 4 2 2 2 1 1 1 2 2 3 3 7 18 21 21 22 21 19 18 18 18 18 18 17 17 16 16 15 14 13 13 12 12 11 12 12 12 12 12 12 12 12
6 4 5 5 5 1 4 3 1 2 2 2 3 2 2 1 4 6 10 19 22 22 22 21 21 19 18 18 18 17 17 17 16 15 14 14 13 13 12 12 12 12 12 12 12 12 11 11 11
5 5 5 4 2 1 4 3 1 1 2 3 2 1 2 3 4 6 12 22 22 20 21 21 22 20 19 18 18 17 17 16 16 15 14 14 13 12 12 12 12 12 12 11 11 11 11 10 10
4 5 5 5 2 1 2 1 1 2 3 4 3 1 3 4 3 8 18 23 22 20 21 23 22 20 19 18 18 17 17 16 15 14 14 13 13 12 12 11 11 12 11 11 11 10 9 9 9
6 5 6 5 2 0 2 4 4 4 3 3 5 1 3 4 6 13 20 22 21 20 20 23 22 20 19 18 18 17 16 16 15 14 13 12 12 12 11 11 11 11 11 11 10 9 9 8 8
5 5 6 3 2 1 1 2 5 5 4 3 4 4 3 6 10 17 21 21 20 20 20 22 21 20 19 18 17 17 16 16 15 14 13 12 12 12 11 11 11 11 10 10 9 8 7 7 6
7 6 4 2 1 2 1 1 4 4 5 5 4 3 5 9 13 18 19 19 19 19 19 20 21 20 19 18 17 17 16 15 15 13 12 12 12 11 11 10 10 10 10 9 8 7 7 6 5
6 5 5 4 2 2 1 2 3 5 4 3 5 4 5 13 16 18 18 18 18 18 18 18 19 19 19 18 17 17 16 15 14 13 12 12 12 11 10 10 10 9 8 8 7 7 6 6 5
5 7 5 2 2 0 2 4 3 3 4 5 5 2 6 19 20 19 18 17 17 17 16 17 17 17 17 17 18 17 16 15 14 13 12 11 10 11 10 10 9 8 7 7 6 6 5 4 7
6 8 2 1 4 5 6 7 6 5 7 7 7 5 13 20 21 22 22 21 20 18 17 15 16 15 15 15 16 14 14 14 12 11 12 9 7 6 8 11 8 7 7 7 6 4 5 6 6
6 7 4 5 6 9 10 9 7 9 9 8 8 11 16 20 21 21 21 21 20 19 17 16 15 15 14 11 13 11 10 11 10 11 10 8 8 7 7 7 8 7 6 5 6 5 2 1 2
7 8 8 8 9 10 11 9 8 9 8 4 4 11 18 21 22 21 21 20 19 19 18 16 15 14 12 11 11 10 10 10 9 10 10 8 6 5 6 4 4 4 4 2 2 2 2 1 2
10 9 8 10 11 10 10 9 8 7 5 3 3 11 17 19 19 18 18 18 18 18 17 15 15 14 12 10 9 10 9 10 10 9 9 8 6 5 5 4 3 2 2 3 2 2 2 2 2
6 9 12 11 8 5 7 7 6 4 3 2 5 11 14 16 18 17 18 18 18 18 18 16 15 14 12 10 9 8 9 9 10 9 9 8 6 5 5 4 3 2 2 1 1 2 2 2 2
8 11 11 6 5 3 7 7 4 1 2 3 5 9 11 13 15 17 17 17 17 17 17 16 15 14 14 12 11 9 9 10 9 9 9 9 7 6 5 4 3 3 2 3 2 2 2 2 3
9 11 9 4 2 2 7 7 3 0 3 3 5 8 10 12 14 14 14 14 14 15 16 16 14 15 14 11 10 8 9 9 8 9 9 9 7 7 5 4 3 3 3 3 2 2 2 2 2
11 10 7 3 1 4 7 7 2 1 3 4 5 7 9 11 12 12 13 13 13 14 14 16 16 15 14 12 9 8 8 8 8 9 8 9 8 7 6 4 4 5 3 3 2 2 2 3 3
7 7 6 5 3 6 8 7 3 1 3 4 6 7 8 10 11 12 12 12 12 13 13 15 15 15 13 11 9 7 8 7 8 8 8 9 8 8 6 5 5 5 3 3 2 2 1 2 3
7 9 9 6 4 6 7 7 4 2 4 4 6 7 8 9 10 11 11 11 12 12 13 14 15 15 13 11 10 10 9 7 7 7 9 9 9 8 6 5 5 4 3 3 4 4 5 4 3
11 11 10 6 3 6 8 8 3 2 3 4 5 7 8 8 9 10 11 12 12 13 13 14 15 15 14 12 10 8 8 7 6 7 8 10 9 9 8 6 5 5 4 4 4 4 3 4 4
12 12 10 8 7 6 8 8 4 3 4 4 5 7 8 9 10 11 12 13 13 14 14 14 15 15 14 13 10 8 7 7 7 8 7 8 9 9 7 7 5 5 5 5 5 5 5 4 4
13 9 8 9 10 7 5 10 3 3 4 5 6 7 8 9 10 11 12 13 13 13 14 14 15 15 15 14 13 14 11 10 9 8 7 8 9 9 8 8 6 5 4 4 6 5 4 4 4
9 4 7 8 10 11 8 9 4 3 4 4 5 7 8 9 10 11 12 12 12 13 13 13 14 14 15 15 15 14 12 9 8 9 9 9 8 9 9 8 7 6 5 4 3 4 4 4 4
6 6 7 8 10 12 7 8 6 2 2 2 5 7 8 8 9 10 11 11 11 12 12 13 13 14 15 15 15 14 13 12 11 11 11 9 8 8 9 9 7 7 5 5 5 4 5 3 3
10 10 9 10 10 9 3 6 5 2 1 2 5 7 8 9 9 10 11 11 11 12 13 13 14 14 14 15 14 14 14 13 13 12 12 10 9 8 9 9 8 7 6 6 5 5 4 4 4
13 14 12 9 9 7 4 6 3 1 2 3 5 7 9 10 10 11 11 11 11 13 13 13 14 14 14 14 14 12 13 11 11 12 11 10 8 8 10 9 9 8 7 7 6 6 6 4 5
12 13 13 12 12 11 7 5 3 3 4 5 7 9 10 10 11 11 12 12 12 12 13 14 14 13 13 13 12 12 12 11 11 11 10 10 8 8 10 10 9 9 8 7 7 6 6 5 6
10 9 7 11 11 11 9 8 4 4 5 7 8 10 11 11 11 12 12 12 12 12 12 12 13 13 13 13 11 10 11 11 10 11 11 10 9 9 10 10 10 9 9 8 8 7 7 7 6
9 10 10 10 10 10 10 5 0 2 4 6 8 9 11 12 13 12 11 12 12 12 12 12 13 13 12 12 12 11 10 10 11 10 11 10 10 10 11 11 10 10 10 9 9 8 7 8 8
10 12 12 11 11 11 11 7 4 2 4 5 7 9 10 12 13 13 13 13 13 13 13 13 13 14 13 13 12 11 10 10 11 11 12 11 11 11 11 11 11 11 10 10 11 10 10 10 9
Wind_Direction
194 208 237 248 245 218 67 68 38 54 64 82 147 236 319 341 350 50 121 151 150 150 147 152 151 147 144 140 138 137 136 135 134 134 133 130 128 124 120 116 112 108 104 102 100 99 98 98 99
193 212 237 247 259 146 92 77 54 38 56 136 179 221 268 59 54 101 140 150 151 150 150 154 149 149 145 142 140 139 138 137 135 134 133 129 126 122 118 115 110 107 105 103 101 101 100 100 100
196 233 261 256 256 20 69 79 24 83 175 209 196 234 321 45 108 135 148 152 153 150 149 148 152 150 148 145 143 141 139 138 137 135 132 129 126 123 118 114 112 109 107 105 103 102 102 102 102
214 229 242 249 225 46 336 352 290 215 190 216 232 188 108 57 110 139 148 155 152 151 152 149 155 151 149 147 145 143 141 139 138 136 133 130 126 122 118 116 114 112 109 106 103 102 102 103 103
240 253 239 225 208 217 274 292 264 244 224 210 222 224 115 91 113 139 152 156 154 155 153 150 155 153 152 150 148 145 143 141 139 137 134 129 125 122 119 116 114 112 109 106 103 99 99 100 102
232 245 242 211 123 145 258 261 241 244 237 215 220 229 114 121 138 148 155 158 158 157 155 150 156 155 154 153 151 148 146 143 141 138 134 129 124 121 119 116 115 112 110 108 103 99 96 95 96
257 254 252 249 162 155 60 297 253 264 249 226 219 219 136 144 146 151 156 160 160 160 157 155 159 159 157 156 154 151 148 145 142 139 135 131 127 123 121 119 117 115 113 110 106 100 96 92 94
266 260 228 211 210 131 68 285 282 273 261 226 214 231 166 152 151 152 157 163 165 165 161 160 162 160 162 160 157 152 149 147 144 143 140 136 134 130 129 134 120 118 116 111 106 102 99 99 102
252 247 222 198 226 354 337 294 287 268 236 206 215 253 116 145 152 155 160 166 169 169 166 166 163 164 165 161 156 156 153 151 152 151 146 157 155 144 151 113 119 123 119 111 105 102 109 133 136
233 245 225 322 304 309 307 289 282 245 233 222 206 155 142 154 161 165 169 172 173 174 172 170 166 165 166 161 158 163 162 159 168 155 159 162 143 144 130 120 125 124 125 127 118 127 174 217 164
233 255 292 287 291 298 294 286 268 256 255 247 223 181 167 168 171 175 176 176 174 174 173 172 168 167 168 160 163 166 162 161 166 158 159 152 155 152 146 148 146 146 159 151 141 184 186 167 93
244 260 271 279 293 291 290 285 269 257 277 311 243 181 174 178 180 181 179 178 175 175 176 174 169 171 171 166 165 166 164 165 163 159 167 160 163 157 147 155 147 163 153 133 167 150 126 121 144
241 266 275 279 284 289 283 273 270 267 283 284 201 173 181 184 183 182 178 177 175 176 176 174 171 171 170 169 173 170 168 167 161 161 168 167 167 163 151 146 154 178 149 164 182 164 139 169 171
263 278 280 279 281 273 276 269 245 273 302 244 177 176 187 185 180 178 178 179 180 180 178 175 174 174 174 173 174 170 169 166 163 165 167 174 171 163 164 166 164 166 176 129 188 152 171 182 146
272 273 263 241 256 272 284 249 228 293 265 208 178 176 182 181 179 180 179 182 182 180 179 175 176 175 178 177 178 174 171 169 169 165 165 174 175 167 175 165 174 162 150 158 182 169 186 177 166
249 250 243 198 254 282 280 280 83 99 229 209 181 173 177 180 184 183 182 182 181 179 179 178 178 176 176 178 179 175 174 171 171 168 167 174 172 171 181 171 168 160 177 180 162 206 196 169 172
228 238 246 223 222 308 283 293 14 309 235 212 189 181 181 181 186 184 184 184 181 181 180 179 179 177 177 174 175 178 176 175 173 171 171 171 174 174 185 177 152 182 185 189 202 154 215 170 174
234 246 247 264 324 309 291 297 302 270 238 214 192 187 186 188 189 185 183 183 181 183 182 182 180 180 177 172 170 173 175 176 176 173 172 170 173 178 186 179 173 193 186 185 175 154 185 186 190
268 267 268 281 322 304 298 302 293 250 230 210 197 190 190 190 182 178 180 181 180 183 184 183 182 182 176 175 177 175 175 174 175 174 170 175 174 175 192 184 174 202 185 192 186 189 174 187 180
249 255 260 263 305 297 299 293 278 237 229 219 209 199 192 185 177 178 180 181 185 185 185 184 186 183 182 178 176 174 166 170 171 172 169 178 178 181 189 189 189 188 177 188 190 208 214 183 202
240 249 265 285 296 258 285 274 218 201 206 206 207 203 195 189 185 183 187 188 186 188 188 187 186 183 182 174 164 159 157 168 170 173 175 181 184 186 188 188 197 186 202 185 196 201 217 203 196
241 245 265 274 276 278 293 299 267 205 221 208 202 198 193 187 187 187 189 189 188 190 190 188 185 182 181 175 174 175 181 182 181 177 174 176 186 188 187 189 191 195 198 175 199 193 206 220 205
245 258 260 266 271 278 261 282 297 197 245 213 193 189 188 185 186 187 188 188 187 186 185 184 183 181 179 180 181 184 188 185 173 173 169 179 184 191 190 188 190 193 199 187 199 176 220 219 231
222 227 238 248 257 260 268 282 291 297 285 220 183 181 183 183 182 181 181 182 185 183 180 180 179 180 180 183 185 189 186 179 172 176 176 184 183 189 189 190 191 196 196 185 193 196 201 231 237
216 232 237 236 237 253 231 266 288 347 304 230 185 177 177 177 176 175 177 178 179 179 178 178 180 180 180 183 187 190 186 182 181 183 184 188 186 188 186 191 193 197 194 193 195 199 213 208 210
219 233 245 259 262 268 211 256 294 100 145 174 176 169 170 175 175 176 177 178 179 180 177 177 179 178 179 182 185 187 187 188 189 191 188 192 194 190 181 188 193 197 196 197 196 208 204 207 216
222 230 248 259 267 274 266 258 244 193 194 180 175 171 174 176 175 174 175 178 178 179 177 177 176 175 177 179 181 185 188 194 191 188 194 195 195 188 183 189 194 198 199 201 202 216 211 209 220
242 238 230 245 257 263 258 256 265 204 200 178 177 178 176 175 174 173 175 176 175 175 173 175 175 175 178 178 180 182 188 193 192 194 198 198 194 192 186 192 197 200 201 202 210 216 212 218 223
204 220 233 247 257 266 272 269 87 210 201 188 178 176 176 175 173 171 171 171 171 171 171 174 174 174 179 182 183 185 187 190 193 197 201 199 196 194 196 198 201 202 203 205 210 223 214 220 222
235 234 228 241 246 250 268 273 106 183 207 188 174 167 172 173 170 168 167 166 170 173 175 176 178 178 181 182 182 185 186 190 196 200 201 197 197 199 200 203 204 206 208 208 212 219 219 221 223
Height
1515 1516 1516 1518 1510 1501 1502 1498 1496 1496 1496 1500 1502 1502 1501 1501 1504 1512 1515 1515 1518 1522 1525 1528 1532 1535 1538 1540 1542 1544 1546 1547 1549 1550 1551 1552 1553 1554 1555 1556 1557 1558 1559 1560 1560 1561 1562 1562 1563
1517 1517 1518 1515 1503 1504 1504 1497 1496 1496 1499 1502 1503 1504 1503 1503 1508 1511 1513 1515 1519 1523 1526 1530 1532 1536 1539 1541 1543 1545 1547 1549 1550 1551 1553 1554 1555 1556 1557 1558 1559 1560 1561 1562 1562 1563 1564 1564 1565
1517 1518 1517 1506 1500 1501 1500 1495 1496 1498 1501 1502 1502 1503 1504 1506 1510 1511 1513 1515 1520 1524 1528 1530 1533 1537 1540 1542 1544 1546 1548 1550 1551 1553 1554 1556 1557 1558 1559 1560 1560 1561 1562 1563 1564 1565 1565 1566 1567
1519 1519 1514 1504 1500 1496 1495 1494 1496 1497 1500 1502 1503 1503 1506 1510 1511 1511 1512 1516 1521 1524 1528 1530 1534 1537 1541 1543 1546 1548 1549 1551 1553 1554 1556 1557 1558 1559 1560 1561 1562 1563 1564 1565 1566 1567 1567 1568 1569
1519 1514 1505 1500 1497 1495 1494 1495 1496 1496 1498 1501 1502 1502 1506 1510 1510 1510 1513 1517 1521 1526 1530 1531 1535 1538 1541 1544 1547 1549 1551 1552 1554 1556 1557 1559 1560 1561 1562 1563 1564 1565 1566 1567 1568 1568 1569 1570 1571
1516 1509 1502 1499 1496 1495 1494 1495 1495 1495 1497 1500 1502 1502 1506 1509 1510 1511 1515 1519 1523 1527 1531 1532 1535 1539 1542 1545 1547 1549 1551 1554 1555 1557 1558 1560 1561 1562 1563 1564 1565 1566 1567 1568 1569 1570 1571 1572 1573
1513 1503 1498 1497 1497 1494 1494 1495 1494 1494 1496 1499 1501 1501 1506 1509 1510 1513 1517 1521 1525 1528 1532 1533 1536 1539 1542 1545 1548 1550 1552 1554 1556 1558 1560 1561 1562 1564 1565 1566 1567 1568 1569 1570 1570 1572 1573 1573 1574
1513 1504 1497 1495 1496 1493 1493 1494 1494 1495 1496 1499 1501 1500 1503 1508 1510 1513 1517 1522 1526 1529 1532 1534 1537 1540 1543 1546 1548 1551 1553 1555 1557 1559 1561 1562 1564 1565 1566 1567 1568 1569 1570 1571 1572 1573 1574 1575 1576
1513 1505 1497 1493 1494 1491 1492 1493 1494 1495 1496 1498 1500 1501 1503 1505 1508 1512 1516 1521 1525 1528 1531 1534 1538 1540 1543 1547 1548 1551 1553 1556 1558 1560 1561 1563 1566 1567 1568 1569 1569 1570 1571 1572 1573 1574 1575 1576 1577
1510 1500 1494 1493 1492 1491 1492 1492 1492 1493 1493 1496 1499 1501 1502 1503 1506 1509 1513 1517 1521 1526 1530 1533 1536 1539 1543 1547 1548 1552 1555 1556 1559 1561 1562 1565 1566 1568 1570 1569 1570 1571 1572 1573 1574 1575 1576 1577 1579
1504 1498 1494 1494 1494 1493 1491 1489 1490 1490 1488 1491 1494 1498 1500 1501 1504 1507 1511 1515 1518 1523 1528 1532 1535 1538 1542 1545 1548 1552 1555 1556 1559 1561 1562 1565 1566 1568 1570 1571 1571 1572 1573 1575 1575 1576 1578 1579 1579
1502 1498 1497 1495 1493 1492 1490 1488 1488 1488 1488 1490 1492 1494 1496 1498 1501 1505 1509 1513 1517 1521 1525 1530 1533 1537 1541 1544 1548 1550 1554 1556 1559 1560 1562 1565 1567 1568 1570 1571 1572 1573 1574 1574 1576 1576 1577 1578 1578
1500 1496 1494 1493 1491 1489 1489 1487 1487 1487 1489 1490 1491 1492 1494 1496 1500 1504 1508 1512 1515 1519 1523 1527 1531 1535 1539 1542 1546 1550 1553 1556 1558 1560 1562 1564 1567 1568 1569 1570 1571 1573 1574 1575 1575 1576 1576 1577 1578
1496 1495 1492 1490 1488 1488 1486 1484 1485 1485 1488 1489 1490 1492 1494 1496 1498 1501 1505 1508 1512 1515 1520 1525 1529 1533 1537 1541 1544 1548 1552 1554 1558 1559 1562 1564 1566 1567 1569 1570 1571 1572 1573 1574 1575 1576 1576 1577 1578
1497 1493 1487 1485 1485 1485 1485 1481 1481 1485 1487 1488 1489 1491 1494 1496 1498 1500 1502 1506 1510 1513 1518 1522 1527 1531 1535 1540 1544 1548 1551 1554 1556 1559 1561 1563 1565 1567 1568 1570 1571 1572 1572 1573 1574 1575 1576 1577 1578
1491 1488 1485 1481 1482 1483 1485 1480 1480 1484 1485 1486 1488 1490 1493 1495 1497 1500 1502 1505 1508 1512 1516 1520 1525 1529 1533 1538 1543 1547 1550 1553 1555 1558 1560 1562 1564 1566 1568 1569 1570 1571 1572 1573 1574 1575 1576 1576 1577
1487 1487 1484 1481 1480 1480 1480 1478 1479 1483 1484 1485 1487 1490 1492 1494 1497 1499 1501 1504 1507 1510 1514 1518 1523 1527 1531 1536 1541 1545 1548 1551 1554 1557 1560 1562 1563 1565 1567 1569 1569 1570 1571 1573 1574 1574 1575 1576 1577
1486 1484 1484 1483 1478 1479 1478 1476 1477 1481 1482 1483 1486 1488 1491 1493 1494 1497 1500 1503 1506 1509 1513 1516 1521 1525 1530 1534 1539 1543 1546 1550 1553 1556 1559 1561 1563 1564 1566 1568 1568 1570 1571 1572 1572 1573 1573 1575 1576
1485 1487 1486 1481 1478 1479 1477 1475 1475 1479 1481 1482 1484 1487 1489 1491 1494 1496 1498 1501 1504 1507 1510 1514 1518 1522 1527 1531 1536 1540 1544 1548 1552 1555 1557 1559 1562 1563 1565 1567 1567 1568 1570 1571 1571 1572 1573 1574 1575
1487 1488 1483 1479 1477 1478 1476 1474 1472 1476 1479 1481 1483 1485 1488 1490 1493 1494 1497 1499 1502 1505 1508 1512 1516 1520 1524 1529 1534 1539 1543 1547 1550 1553 1556 1558 1560 1562 1564 1565 1566 1567 1568 1569 1570 1571 1573 1574 1575
1485 1485 1482 1481 1477 1475 1476 1472 1471 1473 1477 1480 1482 1484 1486 1488 1490 1493 1495 1498 1500 1503 1506 1510 1514 1518 1522 1527 1532 1537 1541 1545 1548 1551 1554 1556 1559 1560 1562 1563 1565 1565 1567 1568 1569 1570 1572 1573 1574
1484 1477 1480 1480 1481 1475 1477 1482 1469 1469 1472 1475 1478 1481 1483 1486 1489 1491 1493 1496 1498 1501 1504 1508 1511 1516 1520 1524 1529 1534 1538 1542 1546 1549 1552 1555 1557 1559 1561 1562 1563 1564 1566 1567 1568 1569 1571 1572 1573
1477 1477 1478 1477 1478 1478 1473 1479 1468 1466 1469 1470 1474 1478 1481 1484 1486 1489 1491 1494 1496 1499 1502 1505 1508 1513 1517 1522 1527 1532 1537 1541 1544 1547 1550 1553 1555 1557 1559 1560 1561 1562 1565 1566 1567 1567 1569 1571 1572
1475 1478 1478 1476 1475 1485 1475 1479 1473 1461 1464 1465 1470 1476 1479 1482 1484 1487 1489 1492 1495 1497 1500 1503 1507 1511 1515 1520 1525 1530 1534 1538 1542 1545 1548 1551 1554 1556 1557 1558 1559 1561 1563 1564 1565 1566 1568 1569 1570
1475 1480 1487 1488 1485 1481 1469 1475 1469 1460 1461 1464 1468 1473 1477 1480 1483 1485 1488 1490 1492 1495 1498 1501 1505 1509 1513 1518 1523 1528 1532 1536 1539 1543 1546 1549 1552 1554 1555 1557 1558 1560 1561 1562 1564 1565 1567 1567 1568
1470 1472 1486 1492 1486 1474 1469 1472 1461 1459 1463 1466 1468 1472 1476 1479 1481 1484 1486 1488 1491 1493 1496 1500 1503 1507 1511 1516 1521 1525 1530 1534 1538 1541 1544 1547 1550 1552 1553 1555 1556 1558 1559 1561 1562 1564 1565 1566 1567
1466 1467 1460 1470 1473 1478 1468 1462 1456 1458 1461 1464 1467 1470 1474 1477 1480 1483 1485 1488 1490 1492 1495 1498 1502 1506 1510 1514 1518 1523 1527 1531 1535 1538 1542 1545 1547 1550 1551 1553 1555 1556 1557 1559 1560 1562 1563 1564 1565
1459 1457 1464 1471 1484 1485 1472 1465 1460 1457 1458 1460 1464 1468 1471 1475 1478 1481 1484 1486 1489 1492 1494 1498 1501 1504 1508 1513 1517 1521 1525 1529 1533 1536 1539 1542 1545 1547 1549 1551 1553 1554 1556 1557 1558 1560 1561 1562 1563
1463 1463 1463 1463 1465 1478 1479 1466 1448 1451 1454 1457 1461 1465 1469 1473 1476 1480 1483 1485 1488 1491 1494 1497 1500 1503 1507 1511 1515 1519 1523 1527 1530 1533 1536 1539 1542 1544 1547 1549 1551 1552 1554 1555 1556 1558 1559 1559 1561
1453 1455 1459 1470 1470 1466 1469 1462 1446 1450 1452 1455 1459 1464 1468 1471 1475 1478 1481 1484 1487 1491 1494 1497 1500 1503 1506 1510 1514 1517 1521 1524 1527 1529 1532 1535 1538 1541 1544 1546 1548 1550 1551 1552 1554 1555 1556 1557 1558